User: anonymous   Login
Location: Forst
(46.9333°N, 15.4333°E)
Time: 15:11:07
(UTC+00:00)
Language:

Cosmos 2058 Rocket - Orbit

View from above orbital plane
View from above orbital plane
View from above satellite
View from above satellite

Ground track
Ground track

The orbit data is extracted from the following two-line orbital elements,

1 20466U 90010B   21174.77222854  .00000072  00000-0  61866-5 0  9991
2 20466  82.5038  79.2728 0020047 193.5659 166.5018 14.81427297673707
Epoch (UTC): 23 June 2021 18:32:00
Eccentricity: 0.0020047
inclination: 82.5038°
perigee height: 611 km
apogee height: 639 km
right ascension of ascending node: 79.2728°
argument of perigee: 193.5659°
revolutions per day: 14.81427297
mean anomaly at epoch: 166.5018°
orbit number at epoch: 67370

The dashed part of the orbit path shows where the satellite is in the earth's shadow,  

DLR